Погода в Кирове

Погода в Кирове : погода сейчас, прогноз погоды и архив. Всё, что Вы хотите узнать о погоде в Кирове!

Хотите узнать прогноз погоды в Кирове? Тогда Вам сюда: Погода в Кирове

Поиск расширенной информации на нашем сайте:

Полезная информация:

Другие новости

Новости СМИ2

Главная страница сайта

Новости сайта

03.07.2017

Напоминаем, что на нашем специализированном сайте Метеоцентр.Азия вы можете получить высокодетализированные автоматические прогнозы погоды по пунктам России, СНГ и мира в авиационном формате (включающие направление и скорость ветра, видимость, явления погоды, количество и форму облачности, нижнюю и верхнюю границу облачности).

Рекомендуем:

Погода в Кирове - сегодня

Время (UTC), дата Ветер
(°,м/с) 
Видим.   Явления Облачность Т
(°С)
Тd
(°С)
f(%) Тe
(°С)
Pmin
(гПа)
dP
(гПа)
Po
(мм)
O2
(г/м3)
Тmin Tmax R s Состояние
почвы
12 15.07.19 030 (СВ) 3-5{08}  20000 м    10/6 600 м кучево-дожд., средняя 
[Cb calv|Ac und]
+20.2 +11.5 57 +24  1006.9  -1  741  276           
15 15.07.19 350 (С) 2-4{07}  20000 м    10/6 600 м кучево-дожд., средняя 
[Cb calv|Ac und]
+19.3 +12.5 65 +25  1006.4  -0.6  741  276    +20.3       
18 15.07.19 310 (СЗ) 1-3{05}  20000 м    10/6 600 м кучево-дожд., средняя, верхняя 
[Cb calv|Ac und|Cs]
+17.1 +13 77 +25  1005.1  -1.3  740  278           
21 15.07.19 300 (СЗ) 1-4{04}  20000 м    10/5 600 м кучево-дожд., средняя, верхняя 
[Cb calv|Ac und|Ci fib]
+15.2 +12.6 84 +22  1004.7  -0.6  740  280           
00 16.07.19 310 (СЗ) 1-3{04}  20000 м    10/3 600 м средняя 
[Sc|Ac und]
+13.7 +12.2 91 +20  1004.9  0.2  740  281           
03 16.07.19 310 (СЗ) 1-2{05}  20000 м    8/1 600 м средняя, верхняя 
[Sc|Ac As|Ci fib]
+13.9 +12.4 91 +20  1006.3  1.3  741  282  +13.2        влажная 
06 16.07.19 300 (СЗ) 3-7{07}  20000 м    1/0 верхняя 
[Ci fib]
+19.1 +9.9 55 +21  1006.6  0.6  741  277           
09 16.07.19 300 (СЗ) 3-5{09}  20000 м    8/5 600 м средняя, верхняя 
[Cu hum|As trans|Cc]
+21.4 +8.8 44 +21  1008.3  1.8  743  276           
12 16.07.19 300 (СЗ) 3-7{09}  20000 м    8/8 600 м 
[Cu med, cong]
+22.3 +8.4 41 +22  1009.7  1.5  744  276           
15 16.07.19 310 (СЗ) 2-4{08}  20000 м    1/1 600 м 
[Cu hum]
+22.6 +8 39 +23  1010.9  1.1  744  276    +23       
18 16.07.19 250 (З) 1-1{05}  20000 м    ясно 
+15.3 +10.6 74 +19  1012.8  1.4  746  282           
21 16.07.19 тихо () -0{02}  20000 м    ясно 
+12.3 +10.2 87 +14  1014.1  1.2  746  286           
00 17.07.19 тихо () -0{01}  20000 м    ясно 
+10.7 +10.3 97 +12  1015  0.8  747  288           
03 17.07.19 тихо () -0{01}  20000 м    9/0 верхняя 
[Ci]
+15.6 +12.3 81 +20  1015.7  0.9  748  283  +10        сухая 
06 17.07.19 100 (В) 1-3{03}  20000 м    10/0 верхняя 
[Ci]
+21.4 +10.9 51 +24  1015.5  0.2  748  277           
09 17.07.19 170 (Ю) 2-4{06}  20000 м    10/8 600 м верхняя 
[Cu med, cong|Cs]
+23.4 +9.2 40 +24  1014.8  -0.5  747  276           
12 17.07.19 150 (ЮВ) 2-4{05}  20000 м    10/5 600 м верхняя 
[Cu med, cong|Ci fib]
+22.8 +9.5 43 +23  1014.3  -0.6  747  276           
15 17.07.19 060 (СВ) 2-4{05}  20000 м    8/3 600 м средняя, верхняя 
[Cu hum|Ac lent|Ci fib]
+23.4 +9.4 41 +24  1013.4  -0.8  746  275    +24.4       
18 17.07.19 070 (В) 1-2{05}  20000 м    8/0 верхняя 
[Ci fib]
+19.2 +10.5 57 +23  1013.8  0.1  746  279           
21 17.07.19 080 (В) 1-4{04}  20000 м    8/0 верхняя 
[Ci fib]
+16.9 +10.7 67 +20  1013.7  -0.3  746  281           
00 18.07.19 070 (В) 1-2{04}  20000 м    3/0 средняя 
[Ac trans]
+14.6 +10.2 75 +18  1013.2  -0.6  746  283           
03 18.07.19 090 (В) 3-5{05}  20000 м    6/4 600 м средняя, верхняя 
[Sc|Ac trans|Ci fib]
+16.8 +11.1 69 +20  1013.1  746  281  +14        сухая 
06 18.07.19 080 (В) 3-6{07}  20000 м    8/0 средняя 
[Ac As]
+20.7 +9.9 50 +22  1011.9  -0.9  745  277           
09 18.07.19 040 (СВ) 2-4{07}  20000 м  в посл. час ливневой дождь  10/3 600 м кучево-дожд., средняя 
[Cb cap|Ac As]
+18.4 +14.2 77 +26  1012  745  278           
12 18.07.19 070 (В) 3-5{06}  20000 м  {ливн. осадки}  8/1 600 м средняя, верхняя 
[Cu med, cong|Ac lent|Ci fib]
+23.8 +11.1 45 +27  1010.5  -1.1  744  274           
Время (UTC), дата Ветер
(°,м/с) 
Видим.   Явления Облачность Т
(°С)
Тd
(°С)
f(%) Тe
(°С)
Pmin
(гПа)
dP
(гПа)
Po
(мм)
O2
(г/м3)
Тmin Tmax R s Состояние
почвы

Для получения пояснительной информации подведите курсор к названию столбца.

ПОГОДА в Кирове - архив

Всё, что Вы хотите узнать о погоде в Кирове - удобно и подробно!

Выберите нужную дату (начиная с 1 января 2018* года) и нажмите кнопку "Найти".
Будут отображены архивные сводки погоды по пункту Киров, начиная с указанной даты.


Отображать данные в формате CSV (для использования в таблицах Excel)


Внимание! Наш архив погоды предназначен исключительно для личного некоммерческого использования в познавательных целях. Если Вам необходимы официальные справки о состоянии погоды (для производственных, юридических, коммерческих и т.п. целей), обращайтесь в органы Росгидромета.

*Примечание: данная дата относится к архиву по метеостанциям СССР (Россия, СНГ, Балтия).
Архив по метеостанциям Зарубежной Европы и Азии (кроме Китая) хранится 10 дней, по другим регионам земного шара (Китай, Африка, Америка, Австралия, Океания) - 1 день.

Киров - район местоположения метеостанции


Название, широта, долгота, высота метеостанции:
Киров 58.6°ш. 49.6°д. 158 м над ур. моря [Российская Федерация]

Дополнительная информация

В oтличие oт бoльшинства пoгoдных сайтoв мы публикуем пoдрoбную метеoинфoрмацию в детальнoм прoфессиoнальнoм фoрмате.

Характеристики температуры и влажнoсти вoздуха измеряются на высoте 2 м в тени вдали oт зданий и деревьев.
Скoрoсть ветра измеряется на высoте 10 м (на урoвне рoста челoвека скoрoсть ветра ниже в 1.5-2 раза). Если метеoстанция нахoдится в гoрoде или в лесу, тo скoрoсть ветра занижена на 2-4 м/с пo сравнению с oткрытым местoм. Скoрoсть ветра над акватoриями крупных рек и oзёр, а также на вершинах хoлмoв на 2-5 м/с выше, чем в oбычных услoвиях.
Атмoсфернoе давление в разных тoчках местнoсти мoжет значительнo oтличаться oт давления на метеoстанции, в зависимoсти oт услoвий рельефа (при пoдъёме на 10 м давление пoнижается примернo на 1 мм рт.ст.).